Home   Weather   Kashgar   Past weeks

Flag for China Past Weather in Kashgar, Xinjiang, China — Yesterday and Last 2 Weeks

Now
21 °F

Clear.


Feels Like: 14 °F
Forecast: 10 / 29 °F
Wind: 6 mph from West

Location: Kashi Airport

Current Time: Jan 22, 2017 at 2:05:20 pm

Latest Report: Jan 22, 2017 at 1:00 pm


Visibility: 3 mi

Pressure: 30.30 "Hg (25.66 "Hg at 1298m altitude)

Humidity: 68%

Dew Point: 12 °F

Location of KashgarLocation

Past Weather in Kashgar — Graph

°F

Kashgar Temperature Yesterday

Maximum temperature yesterday: 28 °F (at 6:00 pm)
Minimum temperature yesterday: 9 °F (at 9:00 am)
Average temperature yesterday: 16 °F

High & Low Weather Summary for the Past Weeks

 TemperatureHumidityPressure
High34 °F (Jan 8, 3:00 pm)100% (Jan 7, 10:00 pm)30.45 "Hg (Jan 7, 10:00 pm)
Low-4 °F (Jan 12, 9:00 am)46% (Jan 10, 5:00 pm)30.09 "Hg (Jan 13, 4:00 pm)
Average14 °F76%30.31 "Hg
* Reported Jan 7 1:00 pm — Jan 22 1:00 pm, Kashgar, Weather by CustomWeather, © 2017

Note: Actual official high and low records may vary slightly from our data, if they occured in-between our weather recording intervals... More about our weather records

Advertising

Kashgar Weather History for the Previous 24 Hours

Scroll right to see more
 ConditionsComfort  
Time TempWeatherWind HumidityBarometerVisibility
1:00 pm
Sun, Jan 22
21 °FClear.6 mph68%30.30 "Hg3 mi
12:00 pm16 °FClear.3 mph73%30.30 "Hg4 mi
11:00 am14 °FSunny.10 mph67%30.30 "Hg10 mi
10:00 am12 °FSunny.13 mph73%30.30 "Hg10 mi
9:00 am10 °FSunny.10 mph72%30.30 "Hg10 mi
8:00 am10 °FClear.10 mph72%30.30 "Hg10 mi
7:00 am10 °FClear.10 mph72%30.27 "Hg10 mi
6:00 am10 °FClear.10 mph72%30.30 "Hg4 mi
5:00 am12 °FClear.8 mph73%30.30 "Hg4 mi
4:00 am10 °FClear.8 mph79%30.30 "Hg4 mi
3:00 am12 °FCold.6 mph73%30.33 "Hg5 mi
2:00 am14 °FCold.10 mph73%30.36 "Hg5 mi
1:00 am14 °FCold.10 mph73%30.36 "Hg5 mi
12:00 am14 °FClear.10 mph79%30.36 "Hg2 mi
11:00 pm
Sat, Jan 21
14 °FClear.8 mph73%30.39 "Hg2 mi
10:00 pm14 °FClear.6 mph79%30.39 "Hg2 mi
9:00 pm16 °FClear.1 mph73%30.36 "Hg3 mi
8:00 pm19 °FClear.3 mph73%30.36 "Hg3 mi
7:00 pm25 °FClear.3 mph63%30.33 "Hg2 mi
6:00 pm28 °FClear.No wind55%30.33 "Hg2 mi
5:00 pm27 °FClear.1 mph59%30.33 "Hg2 mi
4:00 pm27 °FClear.No wind59%30.36 "Hg2 mi
3:00 pm25 °FClear.3 mph63%30.39 "Hg3 mi
2:00 pm25 °FClear.1 mph59%30.42 "Hg4 mi
Weather by CustomWeather, © 2017

See weather overviewHow to use our weather pages